Powrót do katalogu

NOAA 16 DEB

AktywnySSO
NORAD 42375·DEBRIS·🇺🇸 United States

Wystrzelony Sep 21, 2000 z Vandenberg Space Force Base

Loading…

Następne Przeloty (najbliższe 24 godziny)

TLE

ŚwieżeSource: Space-Track

Epoka: Sep 14, 2026, 10:09 UTC

1 42375U 00055RT  26257.42296775  .00002142  00000-0  85429-3 0  9995
2 42375  98.6603 330.3848 0005160 219.0918 140.9892 14.29576234539010

Śledź NOAA 16 DEB w czasie rzeczywistym z AllMySat

Download on the App Store